[[{"header":{"parameterUnit":"m.s-1","parameterCategory":2,"la1":30.2992,"la2":30.254,"lo1":-89.0895,"lo2":-89.0443,"dy":0.0025,"dx":0.0025,"nx":19,"ny":19,"refTime":"2026-04-09T03:00:00:Z","depth":"0","parameterNumber":2,"parameterNumberName":"U-component_of_CURRENTS"},"data":[0,0,0,-0.2395,-0.2397,-0.2482,-0.2482,-0.2553,-0.2554,0,0,0,0,0,0,0,0,0,0,0,-0.2353,-0.2353,-0.2395,-0.2397,-0.2482,-0.2482,-0.2553,-0.2554,0,0,0,0,0,0,0,0,0,0,0,-0.2353,-0.2353,-0.2353,-0.2398,-0.2482,-0.2482,-0.2553,-0.2497,0,0,0,0,0,0,0,0,0,0,-0.2419,-0.2377,-0.2353,-0.2353,-0.2398,-0.2481,-0.2482,-0.2495,-0.2501,-0.2506,0,-0.2515,0,-0.2544,-0.2558,-0.2558,0,0,0,-0.2393,-0.2372,-0.2408,-0.2354,-0.2399,-0.2481,-0.2442,-0.2498,-0.2505,-0.2513,-0.2516,-0.252,-0.2545,-0.2558,-0.2559,-0.2642,-0.2643,0,0,-0.2388,-0.2357,-0.2404,-0.2412,-0.2416,-0.244,-0.2445,-0.2503,-0.2498,-0.2517,-0.2522,-0.2546,-0.2559,-0.2559,-0.2642,-0.2642,0,0,0,-0.2378,-0.2353,-0.2388,-0.2408,-0.2431,-0.2442,-0.2448,-0.2495,-0.2511,-0.2523,-0.2547,-0.2559,-0.256,-0.2641,-0.2642,-0.2667,0,0,0,-0.2375,-0.2348,-0.2386,-0.2367,-0.243,-0.2468,-0.2439,-0.2506,-0.2514,-0.2546,-0.2559,-0.2561,-0.2641,-0.2642,-0.2665,-0.2672,0,0,0,-0.235,-0.2345,-0.2356,-0.2365,-0.2407,-0.2468,-0.2486,-0.2509,-0.2529,-0.2558,-0.2561,-0.2641,-0.2642,-0.2664,-0.267,-0.2668,0,0,0,-0.2313,-0.2349,-0.2355,-0.2409,-0.2406,-0.2502,-0.2486,-0.2545,-0.2574,-0.256,-0.2641,-0.2642,-0.2663,-0.2668,-0.2667,-0.2567,-0.2564,0,0,-0.2348,-0.2352,-0.2391,-0.24,-0.2493,-0.249,-0.2572,-0.2593,-0.2588,-0.2617,-0.262,-0.2666,-0.2669,-0.2668,-0.2626,-0.2621,0,0,0,-0.2397,-0.2416,-0.2449,-0.2498,-0.2561,-0.2598,-0.2628,-0.263,-0.265,-0.2611,-0.268,-0.2681,-0.2679,-0.2617,-0.2614,-0.2581,-0.2647,-0.2647,-0.2647,-0.2374,-0.2435,-0.2493,-0.2564,-0.2618,-0.2676,-0.2702,-0.2706,-0.27,-0.2705,-0.2712,-0.2742,-0.2679,-0.2674,-0.2643,-0.2727,-0.2727,-0.2727,-0.2727,-0.2406,-0.2428,-0.2504,-0.2579,-0.2635,-0.2693,-0.2754,-0.2752,-0.2768,-0.275,-0.2747,-0.266,-0.2672,-0.2639,-0.2729,-0.2728,-0.2728,-0.2728,-0.2728,-0.2362,-0.2378,-0.2435,-0.2523,-0.2599,-0.268,-0.2726,-0.2774,-0.2779,-0.2793,-0.2701,-0.2699,-0.2659,-0.278,-0.278,-0.278,-0.278,-0.278,-0.278,-0.2265,-0.2331,-0.2355,-0.2466,-0.2505,-0.2588,-0.2702,-0.2725,-0.2731,-0.2719,-0.2717,-0.2662,-0.2758,-0.2743,-0.2781,-0.2781,-0.2781,-0.2781,-0.2781,-0.2179,-0.2207,-0.224,-0.2277,-0.2385,-0.2405,-0.2564,-0.2603,-0.2645,-0.2618,-0.2584,-0.2674,-0.265,-0.2651,-0.2633,-0.2641,-0.2641,-0.2641,-0.2641,-0.2078,-0.2112,-0.2106,-0.214,-0.2205,-0.2308,-0.2287,-0.2372,-0.2446,-0.2442,-0.2511,-0.2477,-0.2484,-0.245,-0.2456,-0.2434,-0.2391,-0.2391,-0.2391,-0.1983,-0.2013,-0.196,-0.2033,-0.2108,-0.2158,-0.2094,-0.216,-0.2296,-0.2383,-0.249,-0.2501,-0.2456,-0.2469,-0.242,-0.2431,-0.2396,0,0]},{"header":{"parameterUnit":"m.s-1","parameterCategory":2,"la1":30.2992,"la2":30.254,"lo1":-89.0895,"lo2":-89.0443,"dy":0.0025,"dx":0.0025,"nx":19,"ny":19,"refTime":"2026-04-09T03:00:00:Z","depth":"0","parameterNumber":3,"parameterNumberName":"V-component_of_CURRENTS"},"data":[0,0,0,-0.031,-0.0309,-0.0217,-0.0216,-0.0039,-0.0037,0,0,0,0,0,0,0,0,0,0,0,-0.0343,-0.0343,-0.0311,-0.0309,-0.0217,-0.0216,-0.0039,-0.0037,0,0,0,0,0,0,0,0,0,0,0,-0.0343,-0.0343,-0.0343,-0.0309,-0.0217,-0.0216,-0.0039,-0.0119,0,0,0,0,0,0,0,0,0,0,-0.0214,-0.0264,-0.0343,-0.0343,-0.0308,-0.0217,-0.0216,-0.0124,-0.0114,-0.007,0,-0.0069,0,-0.0055,-0.0026,-0.0025,0,0,0,-0.029,-0.0272,-0.0246,-0.0343,-0.0308,-0.0217,-0.0253,-0.0119,-0.0108,-0.0057,-0.0067,-0.006,-0.0052,-0.0025,-0.0024,0.0098,0.0098,0,0,-0.0295,-0.0319,-0.0254,-0.024,-0.03,-0.0256,-0.0251,-0.0113,-0.0107,-0.0066,-0.0056,-0.0049,-0.0024,-0.0022,0.0098,0.0098,0,0,0,-0.0323,-0.0323,-0.0302,-0.0247,-0.0239,-0.0254,-0.0247,-0.0113,-0.0107,-0.0054,-0.0047,-0.0023,-0.002,0.0098,0.0098,0.0003,0,0,0,-0.0325,-0.034,-0.0305,-0.0317,-0.0242,-0.0184,-0.0251,-0.0116,-0.0101,-0.0048,-0.0022,-0.0019,0.0098,0.0098,0.0006,-0.0048,0,0,0,-0.0345,-0.0342,-0.0337,-0.0319,-0.0287,-0.0187,-0.0171,-0.0113,-0.0096,-0.0025,-0.0018,0.0098,0.0098,0.0008,-0.0043,-0.0012,0,0,0,-0.0364,-0.0391,-0.0338,-0.036,-0.0289,-0.0253,-0.0172,-0.0128,-0.0077,-0.0022,0.0098,0.0098,0.0009,-0.004,-0.001,0.005,0.0046,0,0,-0.0415,-0.0397,-0.0411,-0.0362,-0.0366,-0.0263,-0.0235,-0.0133,-0.0054,0.006,0.0063,0.0005,-0.0043,-0.0011,0.0056,0.0052,0,0,0,-0.0439,-0.0454,-0.0443,-0.043,-0.0374,-0.0313,-0.0209,-0.0146,-0.0046,-0.0025,0.0034,0.0007,0.003,0.0071,0.0068,0.0307,0.0098,0.0098,0.0098,-0.0534,-0.0509,-0.0534,-0.0494,-0.0455,-0.0338,-0.0274,-0.016,-0.0084,-0.0052,-0.0048,-0.0063,-0.0021,-0.0022,0.0223,-0.0015,-0.0016,-0.0016,-0.0016,-0.0633,-0.0656,-0.0607,-0.0626,-0.0537,-0.0492,-0.0328,-0.0255,-0.0138,-0.0095,-0.0066,-0.0005,-0.0031,0.0232,-0.0022,-0.0021,-0.002,-0.0019,-0.0019,-0.0708,-0.072,-0.072,-0.0732,-0.0696,-0.0586,-0.052,-0.0381,-0.0233,-0.0208,-0.0094,-0.0091,0.0126,-0.0176,-0.0177,-0.0177,-0.0177,-0.0177,-0.0177,-0.0789,-0.079,-0.0843,-0.084,-0.0845,-0.0797,-0.0625,-0.052,-0.0311,-0.0187,-0.0185,0.0162,-0.011,-0.012,-0.0179,-0.0178,-0.0178,-0.0178,-0.0178,-0.0894,-0.0887,-0.0978,-0.1005,-0.101,-0.0986,-0.0815,-0.0545,-0.0392,-0.0272,0.0177,-0.0136,-0.0086,-0.0082,-0.0089,-0.0136,-0.0136,-0.0136,-0.0135,-0.096,-0.0966,-0.1087,-0.1149,-0.1168,-0.1072,-0.0915,-0.0587,-0.0053,0.024,0.0329,0.0401,0.0389,0.0471,0.0463,0.0471,0.0567,0.0568,0.0569,-0.1026,-0.106,-0.1157,-0.1213,-0.1241,-0.1152,-0.098,-0.0567,0.0239,0.0622,0.0651,0.0621,0.075,0.0712,0.0858,0.0827,0.0844,0,0]}],[{"header":{"parameterUnit":"m.s-1","parameterCategory":2,"la1":30.2992,"la2":30.254,"lo1":-89.0895,"lo2":-89.0443,"dy":0.0025,"dx":0.0025,"nx":19,"ny":19,"refTime":"2026-04-09T03:00:00:Z","depth":"2","parameterNumber":2,"parameterNumberName":"U-component_of_CURRENTS"},"data":[0,0,0,-0.2218,-0.222,-0.2303,-0.2303,-0.2367,-0.2367,0,0,0,0,0,0,0,0,0,0,0,-0.2178,-0.2179,-0.2218,-0.2221,-0.2303,-0.2303,-0.2367,-0.2367,0,0,0,0,0,0,0,0,0,0,0,-0.2178,-0.2179,-0.2179,-0.2221,-0.2303,-0.2303,-0.2367,-0.2314,0,0,0,0,0,0,0,0,0,0,-0.2239,-0.2201,-0.2179,-0.2179,-0.2221,-0.2303,-0.2303,-0.2312,-0.2317,-0.2319,0,-0.2329,0,-0.2356,-0.2371,-0.2371,0,0,0,-0.2217,-0.2197,-0.223,-0.2179,-0.2222,-0.2303,-0.2265,-0.2315,-0.2321,-0.2326,-0.233,-0.2333,-0.2357,-0.2372,-0.2372,-0.2449,-0.245,0,0,-0.2212,-0.2184,-0.2226,-0.2233,-0.2239,-0.2262,-0.2267,-0.2319,-0.2316,-0.233,-0.2335,-0.2358,-0.2372,-0.2372,-0.2449,-0.2449,0,0,0,-0.2202,-0.218,-0.2213,-0.223,-0.2252,-0.2264,-0.227,-0.2313,-0.2327,-0.2336,-0.2359,-0.2372,-0.2373,-0.2448,-0.2449,-0.2479,0,0,0,-0.2199,-0.2176,-0.2211,-0.2194,-0.2251,-0.2288,-0.2263,-0.2323,-0.2331,-0.2359,-0.2372,-0.2373,-0.2448,-0.2449,-0.2477,-0.2484,0,0,0,-0.2175,-0.2173,-0.2184,-0.2192,-0.2233,-0.2288,-0.2305,-0.2326,-0.2345,-0.2371,-0.2374,-0.2448,-0.2449,-0.2476,-0.2482,-0.2481,0,0,0,-0.2143,-0.2175,-0.2182,-0.2231,-0.2232,-0.2319,-0.2305,-0.2361,-0.2389,-0.2373,-0.2448,-0.2449,-0.2475,-0.248,-0.248,-0.237,-0.2367,0,0,-0.2173,-0.2177,-0.2212,-0.2222,-0.2306,-0.2308,-0.2384,-0.2406,-0.2402,-0.2426,-0.2428,-0.2478,-0.2481,-0.2481,-0.243,-0.2425,0,0,0,-0.2217,-0.2234,-0.2264,-0.231,-0.2367,-0.2406,-0.2436,-0.244,-0.2463,-0.2424,-0.2491,-0.2492,-0.249,-0.2422,-0.2419,-0.2454,-0.2454,-0.2454,-0.2453,-0.2197,-0.2251,-0.2303,-0.2368,-0.242,-0.2478,-0.2505,-0.2513,-0.2508,-0.2519,-0.2526,-0.256,-0.2489,-0.2485,-0.2541,-0.2541,-0.2541,-0.2541,-0.2541,-0.2222,-0.2242,-0.2313,-0.2382,-0.2438,-0.2495,-0.2557,-0.256,-0.2582,-0.2566,-0.2563,-0.247,-0.2482,-0.2544,-0.2543,-0.2543,-0.2543,-0.2542,-0.2542,-0.2182,-0.2196,-0.2251,-0.2333,-0.241,-0.2489,-0.2535,-0.2587,-0.2597,-0.2613,-0.2516,-0.2513,-0.2559,-0.2604,-0.2604,-0.2604,-0.2604,-0.2604,-0.2604,-0.2094,-0.2154,-0.2178,-0.2283,-0.2322,-0.2404,-0.2519,-0.2542,-0.2548,-0.2536,-0.2535,-0.258,-0.2578,-0.2563,-0.2605,-0.2604,-0.2604,-0.2604,-0.2604,-0.2011,-0.204,-0.207,-0.2107,-0.2207,-0.2218,-0.2379,-0.2416,-0.246,-0.2431,-0.2485,-0.2487,-0.246,-0.2462,-0.2443,-0.2452,-0.2452,-0.2452,-0.2452,-0.1917,-0.1949,-0.1943,-0.1973,-0.2031,-0.212,-0.2067,-0.2087,-0.219,-0.218,-0.2191,-0.2144,-0.2157,-0.211,-0.212,-0.2093,-0.2011,-0.201,-0.2009,-0.1827,-0.1854,-0.1804,-0.1869,-0.1935,-0.1963,-0.1836,-0.1714,-0.1775,-0.1989,-0.2091,-0.2427,-0.2389,-0.2397,-0.235,-0.2356,-0.2323,0,0]},{"header":{"parameterUnit":"m.s-1","parameterCategory":2,"la1":30.2992,"la2":30.254,"lo1":-89.0895,"lo2":-89.0443,"dy":0.0025,"dx":0.0025,"nx":19,"ny":19,"refTime":"2026-04-09T03:00:00:Z","depth":"2","parameterNumber":3,"parameterNumberName":"V-component_of_CURRENTS"},"data":[0,0,0,-0.032,-0.0319,-0.0234,-0.0233,-0.0067,-0.0066,0,0,0,0,0,0,0,0,0,0,0,-0.035,-0.035,-0.032,-0.0319,-0.0234,-0.0233,-0.0067,-0.0066,0,0,0,0,0,0,0,0,0,0,0,-0.035,-0.035,-0.035,-0.0319,-0.0234,-0.0233,-0.0068,-0.0142,0,0,0,0,0,0,0,0,0,0,-0.023,-0.0276,-0.035,-0.035,-0.0318,-0.0234,-0.0233,-0.0146,-0.0137,-0.0095,0,-0.0095,0,-0.0082,-0.0055,-0.0054,0,0,0,-0.0301,-0.0283,-0.026,-0.035,-0.0318,-0.0234,-0.0267,-0.0141,-0.0131,-0.0083,-0.0093,-0.0087,-0.0079,-0.0054,-0.0053,0.0059,0.0059,0,0,-0.0305,-0.0328,-0.0267,-0.0254,-0.0311,-0.027,-0.0265,-0.0136,-0.0131,-0.0092,-0.0083,-0.0077,-0.0053,-0.0051,0.0059,0.0059,0,0,0,-0.0331,-0.0331,-0.0312,-0.0261,-0.0253,-0.0268,-0.0262,-0.0136,-0.013,-0.0081,-0.0075,-0.0052,-0.005,0.0059,0.0059,-0.0031,0,0,0,-0.0333,-0.0347,-0.0314,-0.0326,-0.0257,-0.0203,-0.0265,-0.0139,-0.0125,-0.0076,-0.0052,-0.0048,0.0059,0.0059,-0.0029,-0.0083,0,0,0,-0.0351,-0.0349,-0.0344,-0.0327,-0.0299,-0.0205,-0.0191,-0.0136,-0.0121,-0.0054,-0.0048,0.0059,0.0059,-0.0026,-0.0078,-0.0048,0,0,0,-0.0368,-0.0397,-0.0345,-0.037,-0.03,-0.027,-0.0191,-0.0152,-0.0104,-0.0051,0.0059,0.0059,-0.0026,-0.0075,-0.0046,0.0007,0.0002,0,0,-0.0421,-0.0404,-0.0419,-0.0371,-0.0379,-0.028,-0.0258,-0.0161,-0.0084,0.0024,0.0026,-0.0029,-0.0078,-0.0047,0.0009,0.0005,0,0,0,-0.0446,-0.0462,-0.0454,-0.0442,-0.0392,-0.0335,-0.0236,-0.0175,-0.008,-0.0057,-0.0003,-0.003,-0.0008,0.0028,0.0025,0.0059,0.0059,0.0059,0.0059,-0.054,-0.0518,-0.0546,-0.0509,-0.0474,-0.0363,-0.0303,-0.0194,-0.012,-0.0089,-0.0084,-0.0099,-0.0062,-0.0063,-0.0051,-0.0052,-0.0052,-0.0052,-0.0052,-0.0639,-0.0663,-0.0617,-0.0639,-0.0555,-0.0515,-0.0359,-0.0287,-0.0175,-0.0132,-0.0104,-0.0045,-0.0072,-0.0059,-0.0058,-0.0057,-0.0056,-0.0056,-0.0055,-0.0712,-0.0724,-0.0726,-0.0742,-0.0709,-0.0606,-0.0544,-0.0409,-0.0267,-0.0242,-0.0133,-0.0131,-0.0148,-0.0209,-0.0209,-0.021,-0.021,-0.021,-0.021,-0.0789,-0.0793,-0.0845,-0.0846,-0.0853,-0.0808,-0.0645,-0.0545,-0.0345,-0.0226,-0.0223,-0.0151,-0.0145,-0.0154,-0.0212,-0.0211,-0.0211,-0.0211,-0.0211,-0.0892,-0.0885,-0.0976,-0.1003,-0.1012,-0.099,-0.0828,-0.0572,-0.0427,-0.0313,-0.0178,-0.0178,-0.0132,-0.0127,-0.0133,-0.0182,-0.0182,-0.0182,-0.0182,-0.0955,-0.0961,-0.1081,-0.1143,-0.1164,-0.1073,-0.0926,-0.0634,-0.0335,-0.0183,-0.0184,-0.0157,-0.0157,-0.0111,-0.0106,-0.0111,-0.0154,-0.0154,-0.0154,-0.102,-0.1053,-0.1148,-0.1204,-0.1234,-0.1148,-0.0989,-0.0641,-0.0243,-0.0158,-0.0224,-0.0171,-0.013,-0.0132,-0.0055,-0.005,-0.0055,0,0]}],[{"header":{"parameterUnit":"m.s-1","parameterCategory":2,"la1":30.2992,"la2":30.254,"lo1":-89.0895,"lo2":-89.0443,"dy":0.0025,"dx":0.0025,"nx":19,"ny":19,"refTime":"2026-04-09T03:00:00:Z","depth":"4","parameterNumber":2,"parameterNumberName":"U-component_of_CURRENTS"},"data":[0,0,0,-0.1502,-0.1505,-0.1641,-0.1642,-0.1728,-0.1728,0,0,0,0,0,0,0,0,0,0,0,-0.1454,-0.1455,-0.1502,-0.1505,-0.1641,-0.1642,-0.1728,-0.1728,0,0,0,0,0,0,0,0,0,0,0,-0.1454,-0.1455,-0.1456,-0.1505,-0.1641,-0.1642,-0.1728,-0.1647,0,0,0,0,0,0,0,0,0,0,-0.1526,-0.1497,-0.1455,-0.1456,-0.1506,-0.1641,-0.1642,-0.1644,-0.1652,-0.164,0,-0.1666,0,-0.1697,-0.1732,-0.1732,0,0,0,-0.1507,-0.1491,-0.1524,-0.1456,-0.1507,-0.1641,-0.158,-0.165,-0.1658,-0.165,-0.1667,-0.1671,-0.1698,-0.1732,-0.1733,-0.1818,-0.1819,0,0,-0.15,-0.1481,-0.1518,-0.153,-0.1547,-0.1576,-0.1585,-0.1656,-0.1666,-0.1668,-0.1674,-0.17,-0.1733,-0.1733,-0.1818,-0.1818,0,0,0,-0.1476,-0.1475,-0.1509,-0.1525,-0.1556,-0.158,-0.159,-0.1663,-0.1674,-0.1675,-0.1701,-0.1733,-0.1734,-0.1817,-0.1818,-0.1862,0,0,0,-0.1472,-0.1462,-0.1506,-0.1496,-0.1556,-0.1625,-0.1595,-0.1669,-0.1679,-0.17,-0.1733,-0.1734,-0.1816,-0.1817,-0.186,-0.1866,0,0,0,-0.1447,-0.1459,-0.1476,-0.1495,-0.1553,-0.1625,-0.1641,-0.1673,-0.1693,-0.1732,-0.1734,-0.1816,-0.1817,-0.1858,-0.1863,-0.1867,0,0,0,-0.1421,-0.145,-0.1476,-0.1524,-0.1551,-0.1641,-0.1641,-0.1715,-0.1754,-0.1733,-0.1817,-0.1818,-0.1857,-0.1861,-0.1866,-0.163,0,0,0,-0.144,-0.1452,-0.1482,-0.1508,-0.1586,-0.1622,-0.1709,-0.1759,-0.1765,-0.1785,-0.1789,-0.1861,-0.1862,-0.1867,-0.1709,0,0,0,0,-0.1476,-0.1495,-0.1525,-0.1581,-0.1646,-0.1713,-0.1771,-0.1791,-0.1843,-0.1794,-0.1874,-0.1874,-0.1875,-0.1734,-0.1824,-0.1824,-0.1824,-0.1824,-0.1823,-0.1454,-0.1505,-0.1557,-0.1626,-0.1691,-0.1785,-0.1836,-0.1873,-0.1878,-0.191,-0.1921,-0.1969,-0.1824,-0.194,-0.194,-0.1941,-0.1941,-0.1941,-0.1941,-0.146,-0.1477,-0.1569,-0.164,-0.1727,-0.1807,-0.1898,-0.1926,-0.1978,-0.197,-0.197,-0.1805,-0.1946,-0.1945,-0.1944,-0.1944,-0.1943,-0.1943,-0.1943,-0.1411,-0.1423,-0.1499,-0.1603,-0.1714,-0.1823,-0.1886,-0.1971,-0.2006,-0.2032,-0.1864,-0.1991,-0.1972,-0.2033,-0.2033,-0.2033,-0.2033,-0.2034,-0.2034,-0.131,-0.1383,-0.1433,-0.1563,-0.163,-0.1738,-0.1887,-0.1912,-0.1984,-0.188,-0.2041,-0.1999,-0.1996,-0.1978,-0.2035,-0.2035,-0.2034,-0.2034,-0.2034,-0.1207,-0.1263,-0.1313,-0.138,-0.1521,-0.1581,-0.1763,-0.1777,-0.1781,-0.1729,-0.1788,-0.18,-0.1754,-0.1756,-0.1727,-0.1713,-0.171,-0.1707,0,-0.1116,-0.1154,-0.1195,-0.1252,-0.1308,-0.1471,-0.1438,-0.1512,-0.1577,-0.1524,-0.1761,-0.1827,-0.1834,-0.1781,-0.1779,-0.1744,0,0,0,-0.1033,-0.1067,-0.1049,-0.1141,-0.1198,-0.1277,-0.1417,-0.1382,-0.1582,-0.1527,-0.1635,-0.1654,-0.1887,-0.2038,-0.1995,-0.1991,-0.1958,0,0]},{"header":{"parameterUnit":"m.s-1","parameterCategory":2,"la1":30.2992,"la2":30.254,"lo1":-89.0895,"lo2":-89.0443,"dy":0.0025,"dx":0.0025,"nx":19,"ny":19,"refTime":"2026-04-09T03:00:00:Z","depth":"4","parameterNumber":3,"parameterNumberName":"V-component_of_CURRENTS"},"data":[0,0,0,-0.0252,-0.0251,-0.0212,-0.0211,-0.0106,-0.0105,0,0,0,0,0,0,0,0,0,0,0,-0.0266,-0.0266,-0.0252,-0.0251,-0.0212,-0.0211,-0.0106,-0.0105,0,0,0,0,0,0,0,0,0,0,0,-0.0266,-0.0266,-0.0266,-0.0251,-0.0212,-0.0211,-0.0106,-0.0147,0,0,0,0,0,0,0,0,0,0,-0.019,-0.0219,-0.0266,-0.0266,-0.0251,-0.0212,-0.0211,-0.0149,-0.0144,-0.0112,0,-0.0117,0,-0.0113,-0.0098,-0.0098,0,0,0,-0.0237,-0.0223,-0.0212,-0.0266,-0.0251,-0.0212,-0.0226,-0.0146,-0.0141,-0.0106,-0.0116,-0.0112,-0.0111,-0.0097,-0.0097,-0.0031,-0.0031,0,0,-0.024,-0.0253,-0.0216,-0.0209,-0.0253,-0.0227,-0.0225,-0.0144,-0.0142,-0.0116,-0.011,-0.011,-0.0097,-0.0096,-0.0031,-0.0031,0,0,0,-0.0255,-0.0255,-0.0247,-0.0213,-0.0213,-0.0226,-0.0223,-0.0145,-0.0143,-0.0109,-0.0108,-0.0096,-0.0095,-0.0031,-0.0031,-0.0106,0,0,0,-0.0256,-0.0265,-0.0248,-0.0255,-0.0215,-0.0187,-0.0227,-0.0149,-0.014,-0.0109,-0.0096,-0.0094,-0.0031,-0.0031,-0.0104,-0.0151,0,0,0,-0.0265,-0.0265,-0.0265,-0.0256,-0.0245,-0.0189,-0.0181,-0.0147,-0.0139,-0.0098,-0.0093,-0.0031,-0.0031,-0.0102,-0.0146,-0.0125,0,0,0,-0.0273,-0.0302,-0.0266,-0.0296,-0.0245,-0.0244,-0.0182,-0.0167,-0.0139,-0.0095,-0.0031,-0.0031,-0.0101,-0.0144,-0.0124,-0.0141,0,0,0,-0.032,-0.0308,-0.0327,-0.0294,-0.032,-0.0248,-0.0252,-0.0186,-0.0126,-0.0051,-0.0049,-0.0105,-0.0146,-0.0125,-0.0149,0,0,0,0,-0.0349,-0.0366,-0.0366,-0.037,-0.0345,-0.0315,-0.0249,-0.0205,-0.0138,-0.0112,-0.0087,-0.011,-0.0094,-0.0098,-0.0032,-0.0032,-0.0032,-0.0032,-0.0032,-0.0421,-0.0414,-0.045,-0.0436,-0.0423,-0.0356,-0.0317,-0.0238,-0.018,-0.0158,-0.0158,-0.0178,-0.0186,-0.0133,-0.0134,-0.0134,-0.0134,-0.0134,-0.0135,-0.0501,-0.0525,-0.051,-0.0545,-0.0499,-0.0485,-0.0377,-0.0321,-0.0241,-0.0203,-0.0183,-0.0162,-0.0142,-0.014,-0.0139,-0.0138,-0.0138,-0.0137,-0.0137,-0.0549,-0.0561,-0.0584,-0.0623,-0.0623,-0.0563,-0.0527,-0.0429,-0.0318,-0.0301,-0.0254,-0.0212,-0.0218,-0.0276,-0.0276,-0.0276,-0.0276,-0.0276,-0.0277,-0.0586,-0.0608,-0.0667,-0.07,-0.0726,-0.0713,-0.061,-0.0537,-0.0412,-0.0344,-0.0317,-0.0225,-0.022,-0.0224,-0.0279,-0.0278,-0.0278,-0.0278,-0.0278,-0.0642,-0.0653,-0.0743,-0.0789,-0.0838,-0.0819,-0.0736,-0.0568,-0.0487,-0.0399,-0.0335,-0.0332,-0.0297,-0.029,-0.0295,-0.0373,-0.0373,-0.0374,0,-0.0671,-0.0686,-0.0803,-0.0878,-0.0914,-0.0872,-0.0771,-0.0659,-0.0497,-0.0499,-0.0489,-0.0426,-0.042,-0.0388,-0.0382,-0.0394,0,0,0,-0.0704,-0.0738,-0.0821,-0.0899,-0.0944,-0.0815,-0.0735,-0.0674,-0.0533,-0.0439,-0.0384,-0.0381,-0.0357,-0.0284,-0.0221,-0.0216,-0.0218,0,0]}]]